Location: Gdańsk
(54.3534°N, 18.6456°E)
Time: 01:38:06
(UTC+01:00)

ISS - Visible Passes

Search period start: 23 January 2019 00:00
Search period end: 02 February 2019 00:00
Orbit: 404 x 411 km, 51.6° (Epoch: 23 January)

Date Brightness Start Highest point End Pass type
(mag) Time Alt. Az. Time Alt. Az. Time Alt. Az.
23 Jan -1.0 18:40:58 10° S 18:41:04 10° S 18:41:04 10° S visible
24 Jan -1.3 17:51:03 10° SSE 17:51:59 11° SE 17:52:03 11° SE visible
25 Jan -1.9 18:33:48 10° SSW 18:35:40 22° S 18:35:40 22° S visible
26 Jan -1.9 17:43:01 10° SSW 17:45:24 19° SSE 17:46:30 16° ESE visible
26 Jan -1.1 19:18:16 10° WSW 19:19:13 17° SW 19:19:13 17° SW visible
27 Jan -1.4 16:52:38 10° S 16:54:16 13° SE 16:55:54 10° ESE visible
27 Jan -2.9 18:27:04 10° SW 18:30:00 37° S 18:30:00 37° S visible
28 Jan -2.5 17:35:58 10° SW 17:38:53 29° SSE 17:40:44 17° ESE visible
28 Jan -1.7 19:11:50 10° WSW 19:13:26 25° WSW 19:13:26 25° WSW visible
29 Jan -3.4 18:20:31 10° WSW 18:23:44 48° S 18:24:08 45° SE visible
29 Jan -0.2 19:56:50 10° W 19:56:51 10° W 19:56:51 10° W visible
30 Jan -2.9 17:29:15 10° SW 17:32:23 40° SSE 17:34:49 15° E visible
30 Jan -2.2 19:05:26 10° W 19:07:31 33° WSW 19:07:31 33° WSW visible
31 Jan -3.4 18:14:03 10° WSW 18:17:18 53° S 18:18:11 38° SE visible
31 Jan -0.5 19:50:29 10° W 19:50:54 13° W 19:50:54 13° W visible
01 Feb -3.2 17:22:41 10° WSW 17:25:55 50° S 17:28:51 12° E visible
01 Feb -2.5 18:59:02 10° W 19:01:34 38° SW 19:01:34 38° SW visible
